Location: Barruelo
(41.2448°N, 3.8231°W)
Time: 04:57:22
(UTC+00:00)

Cosmos 2227 Rocket - Pass Details

Date: 18 March 2026
Orbit: 836 x 845 km, 71.0° (Epoch: 15 April)

Event Time Altitude Azimuth Distance (km) Brightness Sun altitude
Rises 22:45:28 0° 330° (NNW) 3,413 6.1 -43.8°
Reaches altitude 10° 22:47:59 10° 325° (NW) 2,473 5.2 -44.1°
Enters shadow 22:48:59 15° 321° (NW) 2,118 4.8 -44.2°
